Back to catalog

SL-8 R/B

AlivePO
NORAD 10461·ROCKET BODY·🇷🇺 Russia

Launched Oct 28, 1977 from Plesetsk Cosmodrome

Loading…

Next Passes (next 24 hours)

TLE

FreshSource: Space-Track

Epoch: Sep 14, 2026, 07:54 UTC

1 10461U 77107B   26257.32970433  .00000094  00000-0  79115-4 0  9997
2 10461  82.9510  26.5329 0034367  59.6671 329.7196 13.77156011455107

Track SL-8 R/B in real time with AllMySat

Download on the App Store